This is the latest recevied weather packets stored in our database for station/object JO1YDG-13. If no packets are shown the sender has not sent any weather packets the latest 10 day(s).
| Time | Temp. | Humidity | Pressure | Rain* | Wind** | Luminosity | Snow |
|---|---|---|---|---|---|---|---|
| 1777932731 | 13.89° C | 40% | 991.5 hPa | 0 mm | - | - | - |
| 1777932431 | 14.44° C | 40% | 991.5 hPa | 0 mm | - | - | - |
| 1777932131 | 14.44° C | 41% | 991.3 hPa | 0 mm | - | - | - |
| 1777931831 | 14.44° C | 41% | 991.3 hPa | 0 mm | - | - | - |
| 1777930630 | 13.33° C | 42% | 991.2 hPa | 0 mm | - | - | - |
| 1777930330 | 13.33° C | 42% | 991.2 hPa | 0 mm | - | - | - |
| 1777930029 | 12.78° C | 42% | 991.1 hPa | 0 mm | - | - | - |
| 1777929731 | 12.78° C | 43% | 991 hPa | 0 mm | - | - | - |
| 1777929431 | 12.78° C | 44% | 991 hPa | 0 mm | - | - | - |
| 1777929131 | 12.22° C | 48% | 990.7 hPa | 0 mm | - | - | - |
| 1777927930 | 11.67° C | 48% | 990.4 hPa | 0 mm | - | - | - |
| 1777926731 | 11.11° C | 47% | 990 hPa | 0 mm | - | - | - |
| 1777925230 | 11.11° C | 46% | 989.4 hPa | 0 mm | - | - | - |
| 1777924930 | 11.11° C | 43% | 989 hPa | 0 mm | - | - | - |
| 1777924331 | 11.11° C | 42% | 989 hPa | 0 mm | - | - | - |
| 1777923129 | 10.56° C | 49% | 988.5 hPa | 0 mm | - | - | - |
| 1777922831 | 10.56° C | 49% | 988.4 hPa | 0 mm | - | - | - |
| 1777922531 | 10.56° C | 48% | 988.4 hPa | 0 mm | - | - | - |
| 1777922231 | 10.56° C | 49% | 988.4 hPa | 0 mm | - | - | - |
| 1777921331 | 11.11° C | 48% | 988 hPa | 0 mm | - | - | - |
| 1777920731 | 11.11° C | 49% | 988 hPa | 0 mm | - | - | - |
| 1777919830 | 11.11° C | 50% | 987.3 hPa | 0 mm | - | - | - |
| 1777919530 | 11.67° C | 51% | 987.3 hPa | 0 mm | - | - | - |
| 1777919230 | 11.67° C | 51% | 987.2 hPa | 0 mm | - | - | - |
| 1777918929 | 11.67° C | 51% | 987.1 hPa | 0 mm | - | - | - |
* Rain latest hour (hover to see other rain measurements)
** Current wind speed in m/s (hover to see current wind gust speed)